EW6058 Weather Reports


Display with metric or nautical units.
time (UTC)temp
F
wind
direction
speed
MPH
gust
MPH
rain 1hr
in
rain 24hr
in
rain mn
in
humidity
%
barometer
mb
20260509011511 49 172 0.0 2.0 0.00 0.00 0.00 81 1013.0
20260509011004 49 178 0.0 2.0 0.00 0.00 0.00 80 1012.8
20260509010506 49 184 0.0 2.0 0.00 0.00 0.00 79 1012.7
20260509010010 49 184 0.0 2.0 0.00 0.00 0.00 79 1012.7
20260509005504 49 184 0.0 2.0 0.00 0.00 0.00 79 1012.5
20260509005003 49 184 0.0 2.0 0.00 0.00 0.00 78 1012.5
20260509004506 49 184 0.0 2.0 0.00 0.00 0.00 77 1012.5
20260509004004 49 184 0.0 2.0 0.00 0.00 0.00 77 1012.3
20260509003504 49 184 0.0 2.0 0.00 0.00 0.00 76 1012.3
20260509003004 49 189 0.0 2.0 0.00 0.00 0.00 76 1012.1
20260509002505 50 203 0.0 2.0 0.00 0.00 0.00 75 1012.1
20260509002005 50 203 0.0 2.0 0.00 0.00 0.00 75 1011.9
20260509001513 50 204 0.0 2.0 0.00 0.00 0.00 74 1011.8
20260509001004 50 204 0.0 2.0 0.00 0.00 0.00 74 1011.7
20260509000507 51 205 0.0 2.0 0.00 0.00 0.00 74 1011.6
20260509000015 51 211 0.0 2.0 0.00 0.00 0.00 75 1011.4
20260508235507 51 211 0.0 2.0 0.00 0.00 0.00 74 1011.4
20260508235008 51 214 0.0 2.0 0.00 0.00 0.00 74 1011.2
20260508234515 51 214 0.0 2.0 0.00 0.00 0.00 74 1011.1
20260508234005 51 214 1.0 2.0 0.00 0.00 0.00 74 1011.1
20260508233510 52 203 0.0 2.0 0.00 0.00 0.00 73 1010.9
20260508233003 52 204 0.0 2.0 0.00 0.00 0.00 72 1010.9
20260508232503 52 207 0.0 2.0 0.00 0.00 0.00 72 1010.8
20260508232003 52 206 0.0 2.0 0.00 0.00 0.00 71 1010.8
20260508231509 52 172 0.0 2.0 0.00 0.00 0.00 71 1010.8
20260508231004 52 214 0.0 2.0 0.00 0.00 0.00 69 1010.7
20260508230503 52 185 0.0 2.0 0.00 0.00 0.00 69 1010.6
20260508230011 52 196 0.0 3.0 0.00 0.00 0.00 68 1010.6
20260508225508 53 180 1.0 3.0 0.00 0.00 0.00 68 1010.6
20260508225008 53 214 1.0 3.0 0.00 0.00 0.00 69 1010.6
20260508224517 53 173 0.0 2.0 0.00 0.00 0.00 69 1010.6
20260508224007 53 175 1.0 2.0 0.00 0.00 0.00 68 1010.6
20260508223507 53 163 1.0 3.0 0.00 0.00 0.00 67 1010.6
20260508223038 54 176 1.0 4.0 0.00 0.00 0.00 68 1010.6
20260508222508 54 211 1.0 4.0 0.00 0.00 0.00 69 1010.4
20260508222012 54 226 1.0 6.0 0.00 0.00 0.00 69 1010.4
20260508221503 54 177 1.0 6.0 0.00 0.00 0.00 67 1010.4
20260508221004 55 188 2.0 4.0 0.00 0.00 0.00 65 1010.4
20260508220504 55 155 1.0 2.0 0.00 0.00 0.00 64 1010.3
20260508220010 55 161 1.0 2.0 0.00 0.00 0.00 63 1010.4
20260508215511 55 148 1.0 2.0 0.00 0.00 0.00 59 1010.4
20260508215005 55 182 1.0 4.0 0.00 0.00 0.00 57 1010.4
20260508214512 55 181 1.0 5.0 0.00 0.00 0.00 59 1010.4
20260508214008 55 187 1.0 5.0 0.00 0.00 0.00 60 1010.4
20260508213506 55 186 2.0 3.0 0.00 0.00 0.00 58 1010.2
20260508213023 55 155 1.0 3.0 0.00 0.00 0.00 59 1010.1
20260508212508 55 158 1.0 3.0 0.00 0.00 0.00 58 1010.2
20260508212009 55 179 2.0 3.0 0.00 0.00 0.00 59 1010.2
20260508211519 55 167 0.0 4.0 0.00 0.00 0.00 62 1010.1
20260508211008 54 209 2.0 4.0 0.00 0.00 0.00 65 1010.2
20260508210510 53 189 2.0 4.0 0.00 0.00 0.00 71 1010.1
20260508210008 52 65 0.0 2.0 0.00 0.00 0.00 79 1010.0
20260508205505 52 12 0.0 3.0 0.00 0.00 0.00 79 1009.9
20260508205004 51 266 1.0 4.0 0.00 0.00 0.00 73 1010.2
20260508204512 52 133 2.0 6.0 0.00 0.00 0.00 73 1010.3
20260508204005 52 183 2.0 7.0 0.00 0.00 0.00 69 1010.2
20260508203506 52 180 3.0 8.0 0.00 0.00 0.00 71 1010.1
20260508203017 53 191 3.0 8.0 0.00 0.00 0.00 70 1010.1
20260508202506 53 165 3.0 7.0 0.00 0.00 0.00 70 1010.1
20260508202012 54 174 3.0 7.0 0.00 0.00 0.00 70 1010.0
20260508201522 54 212 2.0 7.0 0.00 0.00 0.00 69 1010.0
20260508201006 54 172 2.0 7.0 0.00 0.00 0.00 68 1010.0
20260508200507 55 199 3.0 7.0 0.00 0.00 0.00 68 1009.8
20260508200025 55 176 2.0 7.0 0.00 0.00 0.00 67 1009.8
20260508195511 56 161 3.0 6.0 0.00 0.00 0.00 65 1009.6
20260508195007 56 212 2.0 6.0 0.00 0.00 0.00 64 1009.6
20260508194506 56 169 3.0 6.0 0.00 0.00 0.00 64 1009.5
20260508194004 57 200 2.0 6.0 0.00 0.00 0.00 64 1009.5
20260508193507 57 198 3.0 9.0 0.00 0.00 0.00 62 1009.6
20260508193016 57 172 4.0 9.0 0.00 0.00 0.00 62 1009.5
20260508192508 57 174 3.0 8.0 0.00 0.00 0.00 63 1009.5
20260508192008 57 214 2.0 8.0 0.00 0.00 0.00 63 1009.4
20260508191525 57 190 3.0 8.0 0.00 0.00 0.00 61 1009.5
20260508191006 57 215 3.0 6.0 0.00 0.00 0.00 61 1009.6
20260508190507 57 184 2.0 6.0 0.00 0.00 0.00 61 1009.5
20260508190023 57 206 3.0 8.0 0.00 0.00 0.00 59 1009.5
20260508185505 58 172 3.0 8.0 0.00 0.00 0.00 59 1009.5
20260508185011 58 173 2.0 8.0 0.00 0.00 0.00 56 1009.4
20260508184525 58 179 3.0 7.0 0.00 0.00 0.00 56 1009.4
20260508184011 58 174 3.0 7.0 0.00 0.00 0.00 54 1009.4
20260508183517 58 187 4.0 7.0 0.00 0.00 0.00 58 1009.5
20260508183024 58 205 3.0 7.0 0.00 0.00 0.00 58 1009.5
20260508182505 58 206 3.0 9.0 0.00 0.00 0.00 55 1009.6
20260508182009 58 158 3.0 9.0 0.00 0.00 0.00 52 1009.6
20260508181517 59 229 3.0 7.0 0.00 0.00 0.00 52 1009.7
20260508181008 59 215 3.0 7.0 0.00 0.00 0.00 53 1009.8
20260508180510 0 186 2.0 6.0 0.00 0.00 0.00 51 1009.6
20260508180023 0 174 3.0 6.0 0.00 0.00 0.00 52 1009.7
20260508175507 59 158 2.0 6.0 0.00 0.00 0.00 51 1009.7
20260508175012 59 163 3.0 6.0 0.00 0.00 0.00 47 1009.8
20260508174523 60 144 3.0 6.0 0.00 0.00 0.00 46 1009.8
20260508174015 60 186 2.0 5.0 0.00 0.00 0.00 48 1009.8
20260508173509 60 140 2.0 5.0 0.00 0.00 0.00 47 1009.9
20260508173025 60 184 1.0 5.0 0.00 0.00 0.00 48 1009.8
20260508172514 60 165 1.0 3.0 0.00 0.00 0.00 46 1009.8
20260508172011 60 162 1.0 5.0 0.00 0.00 0.00 45 1009.8
20260508171516 59 129 2.0 5.0 0.00 0.00 0.00 46 1009.8
20260508171015 60 174 2.0 5.0 0.00 0.00 0.00 42 1009.8
20260508170507 61 146 2.0 5.0 0.00 0.00 0.00 41 1009.9
20260508170019 61 242 2.0 8.0 0.00 0.00 0.00 41 1010.0
20260508165506 61 141 1.0 8.0 0.00 0.00 0.00 43 1009.8
20260508165010 61 189 3.0 7.0 0.00 0.00 0.00 42 1009.9
20260508164524 62 179 3.0 7.0 0.00 0.00 0.00 43 1010.1
20260508164003 61 214 1.0 6.0 0.00 0.00 0.00 42 1010.0
20260508163502 61 167 2.0 4.0 0.00 0.00 0.00 39 1010.2
20260508163006 61 161 1.0 4.0 0.00 0.00 0.00 43 1010.1
20260508162504 61 160 2.0 5.0 0.00 0.00 0.00 37 1010.3
20260508162007 61 205 2.0 5.0 0.00 0.00 0.00 38 1010.2
20260508161509 61 174 1.0 4.0 0.00 0.00 0.00 35 1010.3
20260508161008 61 177 2.0 4.0 0.00 0.00 0.00 34 1010.4
20260508160507 62 174 2.0 4.0 0.00 0.00 0.00 36 1010.3
20260508160022 62 210 2.0 5.0 0.00 0.00 0.00 35 1010.3
20260508155511 62 193 2.0 5.0 0.00 0.00 0.00 34 1010.4
20260508155010 62 212 1.0 4.0 0.00 0.00 0.00 37 1010.3
20260508154505 61 163 1.0 3.0 0.00 0.00 0.00 36 1010.3
20260508154006 61 169 1.0 3.0 0.00 0.00 0.00 35 1010.4
20260508153503 62 171 1.0 4.0 0.00 0.00 0.00 35 1010.4
20260508153006 62 120 1.0 4.0 0.00 0.00 0.00 37 1010.4
20260508152506 62 164 1.0 3.0 0.00 0.00 0.00 39 1010.5
20260508152006 62 179 1.0 3.0 0.00 0.00 0.00 38 1010.6
20260508151508 62 220 1.0 3.0 0.00 0.00 0.00 36 1010.5
20260508151011 61 218 1.0 3.0 0.00 0.00 0.00 40 1010.5
20260508150509 60 148 1.0 3.0 0.00 0.00 0.00 37 1010.6
20260508150034 60 160 1.0 3.0 0.00 0.00 0.00 39 1010.7
20260508145507 61 113 1.0 3.0 0.00 0.00 0.00 39 1010.7
20260508145008 61 153 1.0 4.0 0.00 0.00 0.00 42 1010.7
20260508144516 60 207 2.0 4.0 0.00 0.00 0.00 45 1010.7
20260508144007 60 158 1.0 3.0 0.00 0.00 0.00 43 1010.7
20260508143507 60 155 1.0 2.0 0.00 0.01 0.00 42 1010.7
20260508143009 59 168 1.0 2.0 0.00 0.01 0.00 1010.7
20260508142505 59 188 1.0 2.0 0.00 0.01 0.00 49 1010.8
20260508142003 58 193 1.0 2.0 0.00 0.01 0.00 49 1010.8
20260508141508 57 162 1.0 3.0 0.00 0.01 0.00 49 1010.8
20260508141005 56 170 1.0 3.0 0.00 0.01 0.00 46 1010.8
20260508140509 56 151 1.0 3.0 0.00 0.01 0.00 49 1010.8
20260508140021 57 167 1.0 4.0 0.00 0.01 0.00 50 1010.8
20260508135504 57 146 1.0 4.0 0.00 0.01 0.00 49 1010.8
20260508135005 57 214 1.0 4.0 0.00 0.01 0.00 48 1010.9
20260508134516 57 158 1.0 2.0 0.00 0.01 0.00 47 1010.9
20260508134008 57 212 0.0 2.0 0.00 0.01 0.00 50 1010.9
20260508133512 56 205 1.0 3.0 0.00 0.01 0.00 50 1010.9
20260508133019 56 222 1.0 3.0 0.00 0.01 0.00 49 1010.9
20260508132507 56 210 0.0 2.0 0.00 0.01 0.00 50 1010.9
20260508132008 56 226 1.0 2.0 0.00 0.01 0.00 51 1010.8
20260508131506 56 224 1.0 3.0 0.00 0.01 0.00 50 1010.8
20260508131007 56 319 0.0 3.0 0.00 0.01 0.00 45 1010.7
20260508130505 56 228 1.0 3.0 0.00 0.01 0.00 49 1010.7
20260508130010 56 219 1.0 3.0 0.00 0.01 0.00 49 1010.7
20260508125508 56 255 0.0 3.0 0.00 0.01 0.00 49 1010.7
20260508125004 55 269 1.0 2.0 0.00 0.01 0.00 53 1010.7
20260508124513 54 218 1.0 2.0 0.00 0.01 0.00 53 1010.7
20260508124006 53 233 0.0 2.0 0.00 0.01 0.00 55 1010.7
20260508123505 52 225 1.0 2.0 0.00 0.01 0.00 58 1010.8
20260508123020 52 226 0.0 2.0 0.00 0.02 0.00 61 1010.8
20260508122508 51 226 1.0 2.0 0.00 0.03 0.00 59 1010.8
20260508122011 51 228 0.0 2.0 0.00 0.03 0.00 61 1010.8
20260508121523 51 229 0.0 2.0 0.00 0.03 0.00 58 1010.6
20260508121007 51 222 0.0 2.0 0.00 0.03 0.00 61 1010.6
20260508120507 51 226 1.0 2.0 0.00 0.03 0.00 58 1010.7
20260508120007 51 214 0.0 2.0 0.00 0.03 0.00 64 1010.7
20260508115505 51 214 0.0 2.0 0.00 0.03 0.00 61 1010.8
20260508115004 50 214 0.0 3.0 0.00 0.03 0.00 61 1010.8
20260508114512 50 214 1.0 3.0 0.00 0.03 0.00 62 1010.9
20260508114007 50 219 1.0 2.0 0.00 0.03 0.00 65 1010.9
20260508113505 50 218 0.0 2.0 0.00 0.04 0.00 68 1010.8
20260508113018 49 218 0.0 2.0 0.00 0.04 0.00 67 1010.8
20260508112509 49 218 0.0 2.0 0.00 0.04 0.00 70 1010.7
20260508112009 48 218 0.0 2.0 0.00 0.04 0.00 71 1010.6
20260508111521 48 218 0.0 2.0 0.00 0.04 0.00 71 1010.6
20260508111009 47 218 0.0 2.0 0.00 0.04 0.00 71 1010.6
20260508110507 47 218 0.0 2.0 0.00 0.04 0.00 71 1010.7
20260508110026 47 218 0.0 2.0 0.00 0.04 0.00 72 1010.6
20260508105507 46 218 0.0 2.0 0.00 0.05 0.00 72 1010.6
20260508105010 46 218 0.0 2.0 0.00 0.05 0.00 74 1010.6
20260508104506 45 218 0.0 2.0 0.00 0.05 0.00 74 1010.4
20260508104003 45 218 0.0 2.0 0.00 0.05 0.00 75 1010.4
20260508103504 45 218 0.0 2.0 0.00 0.06 0.00 73 1010.3
20260508103014 45 218 0.0 2.0 0.00 0.06 0.00 73 1010.3
20260508102507 45 218 0.0 2.0 0.00 0.06 0.00 73 1010.2
20260508102009 44 218 0.0 2.0 0.00 0.07 0.00 73 1010.1
20260508101518 44 218 0.0 2.0 0.00 0.07 0.00 74 1010.1
20260508101013 44 218 0.0 2.0 0.00 0.07 0.00 75 1009.9
20260508100508 44 218 0.0 2.0 0.00 0.07 0.00 73 1009.9
20260508100025 44 218 0.0 2.0 0.00 0.07 0.00 74 1009.9
20260508095507 44 218 0.0 2.0 0.00 0.07 0.00 73 1009.8
20260508095010 44 218 0.0 2.0 0.00 0.07 0.00 73 1009.8
20260508094528 43 218 0.0 2.0 0.00 0.08 0.00 74 1009.7
20260508094012 43 218 0.0 2.0 0.00 0.08 0.00 73 1009.6
20260508093508 43 218 1.0 2.0 0.00 0.08 0.00 73 1009.7
20260508093010 43 218 0.0 2.0 0.00 0.09 0.00 73 1009.7
20260508092504 43 218 0.0 2.0 0.00 0.11 0.00 73 1009.7
20260508092007 43 218 0.0 2.0 0.00 0.12 0.00 73 1009.6
20260508091517 43 218 1.0 2.0 0.00 0.19 0.00 74 1009.6
20260508091006 43 217 1.0 2.0 0.00 0.22 0.00 75 1009.6
20260508090506 42 217 0.0 2.0 0.00 0.23 0.00 75 1009.5
20260508090017 42 217 0.0 2.0 0.00 0.25 0.00 76 1009.4
20260508085509 42 217 0.0 2.0 0.00 0.25 0.00 76 1009.2
20260508085008 42 217 0.0 2.0 0.00 0.25 0.00 74 1009.1
20260508084521 42 217 0.0 2.0 0.00 0.26 0.00 74 1009.0
20260508084008 42 217 0.0 2.0 0.00 0.27 0.00 74 1009.0
20260508083507 42 217 0.0 2.0 0.00 0.28 0.00 74 1009.0
20260508083027 42 217 0.0 2.0 0.00 0.35 0.00 75 1009.0
20260508082510 42 217 0.0 2.0 0.00 0.37 0.00 75 1009.0
20260508082013 43 217 0.0 0.0 0.00 0.37 0.00 75 1008.9
20260508081527 43 217 0.0 0.0 0.00 0.37 0.00 74 1008.8
20260508081006 43 217 0.0 0.0 0.00 0.37 0.00 73 1008.7
20260508080505 44 217 0.0 0.0 0.00 0.37 0.00 72 1008.6
20260508080028 44 217 0.0 0.0 0.00 0.37 0.00 71 1008.5
20260508075508 45 217 0.0 0.0 0.00 0.37 0.00 70 1008.4
20260508075008 45 217 0.0 0.0 0.00 0.37 0.00 67 1008.4
20260508074521 45 217 0.0 0.0 0.00 0.37 0.00 66 1008.3
20260508074003 46 217 0.0 2.0 0.00 0.37 0.00 65 1008.3
20260508073503 46 217 0.0 2.0 0.00 0.37 0.00 64 1008.3
20260508073005 46 217 0.0 2.0 0.00 0.38 0.00 63 1008.2
20260508072505 46 217 0.0 2.0 0.00 0.38 0.00 64 1008.2
20260508072004 46 217 0.0 2.0 0.00 0.38 0.00 62 1008.1
20260508071513 47 217 0.0 2.0 0.00 0.38 0.00 63 1008.1
20260508071006 47 217 0.0 2.0 0.00 0.38 0.00 63 1008.1
20260508070510 47 217 0.0 2.0 0.00 0.38 0.00 63 1008.1
20260508070020 47 217 0.0 2.0 0.00 0.38 0.00 63 1008.1
20260508065507 47 217 0.0 2.0 0.00 0.38 0.00 64 1008.1
20260508065006 47 217 0.0 2.0 0.00 0.38 0.00 63 1008.1
20260508064535 47 217 0.0 2.0 0.00 0.38 0.00 64 1008.1
20260508064003 47 217 0.0 2.0 0.00 0.38 0.00 65 1008.0
20260508063505 47 200 0.0 2.0 0.00 0.38 0.00 65 1007.9
20260508063004 47 200 0.0 2.0 0.00 0.38 0.00 65 1007.9
20260508062505 48 200 0.0 2.0 0.00 0.38 0.00 64 1007.8
20260508062003 48 200 0.0 2.0 0.00 0.38 0.00 63 1007.7
20260508061506 48 200 0.0 2.0 0.00 0.38 0.00 62 1007.7
20260508061004 49 200 0.0 2.0 0.00 0.38 0.00 62 1007.8
20260508060508 49 200 0.0 2.0 0.00 0.38 0.00 59 1007.7
20260508060011 49 200 0.0 2.0 0.00 0.38 0.00 59 1007.7
20260508055504 49 197 0.0 2.0 0.00 0.38 0.00 59 1007.7
20260508055004 49 236 0.0 2.0 0.00 0.38 0.00 59 1007.7
20260508054530 49 224 0.0 3.0 0.00 0.38 0.00 61 1007.8
20260508054006 49 221 1.0 3.0 0.00 0.38 0.00 60 1007.7
20260508053508 49 222 0.0 2.0 0.00 0.38 0.00 62 1007.7
20260508053020 49 222 0.0 2.0 0.00 0.38 0.00 60 1007.6
20260508052503 49 222 0.0 2.0 0.00 0.38 0.00 61 1007.7
20260508052006 49 221 0.0 2.0 0.00 0.38 0.00 62 1007.7
20260508051504 49 221 0.0 2.0 0.00 0.38 0.00 65 1007.7
20260508051006 49 221 0.0 2.0 0.00 0.38 0.00 65 1007.7
20260508050504 49 221 0.0 2.0 0.00 0.38 0.00 62 1007.7
20260508050010 49 221 0.0 2.0 0.00 0.38 0.00 63 1007.8
20260508045504 49 221 0.0 2.0 0.00 0.38 0.00 62 1007.8
20260508045004 49 221 0.0 2.0 0.00 0.38 0.00 62 1007.8
20260508044511 49 221 0.0 2.0 0.00 0.38 0.00 63 1007.7
20260508044004 49 221 0.0 2.0 0.00 0.38 0.00 62 1007.7
20260508043507 49 221 0.0 2.0 0.00 0.38 0.00 62 1007.7
20260508043020 49 221 0.0 2.0 0.00 0.38 0.00 60 1007.8
20260508042507 49 221 0.0 2.0 0.00 0.38 0.00 61 1007.9
20260508042008 49 221 0.0 2.0 0.00 0.38 0.00 60 1007.8
20260508041524 49 221 0.0 2.0 0.00 0.38 0.00 60 1007.9
20260508041007 49 221 0.0 2.0 0.00 0.38 0.00 60 1007.9
20260508040504 49 221 0.0 2.0 0.00 0.38 0.00 60 1007.9
20260508040027 49 221 0.0 1.0 0.00 0.38 0.00 61 1007.9
20260508035504 49 221 0.0 0.0 0.00 0.38 0.38 60 1007.9
20260508035006 50 221 0.0 2.0 0.00 0.38 0.38 60 1007.9
20260508034509 50 221 0.0 2.0 0.00 0.38 0.38 59 1007.9
20260508034005 50 221 0.0 2.0 0.00 0.38 0.38 58 1007.9
20260508033504 50 221 0.0 2.0 0.00 0.38 0.38 57 1007.9
20260508033018 50 221 0.0 2.0 0.00 0.38 0.38 59 1007.9
20260508032506 50 216 0.0 2.0 0.00 0.38 0.38 59 1007.8
20260508032007 51 214 0.0 2.0 0.00 0.38 0.38 58 1007.9
20260508031521 51 214 1.0 2.0 0.00 0.38 0.38 58 1008.0
20260508031014 51 211 0.0 3.0 0.00 0.38 0.38 57 1008.0
20260508030508 51 215 1.0 3.0 0.00 0.38 0.38 57 1008.0
20260508030025 51 219 0.0 2.0 0.00 0.38 0.38 57 1008.1
20260508025510 51 224 0.0 2.0 0.00 0.38 0.38 58 1008.1
20260508025007 51 224 1.0 3.0 0.00 0.38 0.38 57 1008.1
20260508024519 51 220 1.0 3.0 0.00 0.38 0.38 57 1008.1
20260508024004 51 225 0.0 2.0 0.00 0.38 0.38 58 1008.1
20260508023503 51 221 0.0 2.0 0.00 0.38 0.38 57 1008.1
20260508023012 52 227 0.0 2.0 0.00 0.38 0.38 57 1008.1
20260508022506 52 223 1.0 4.0 0.00 0.38 0.38 56 1008.2
20260508022006 52 228 1.0 4.0 0.00 0.38 0.38 57 1008.1
20260508021518 52 224 1.0 3.0 0.00 0.38 0.38 57 1008.2
20260508021005 52 220 1.0 3.0 0.00 0.38 0.38 57 1008.0
20260508020508 52 227 0.0 3.0 0.00 0.38 0.38 58 1007.9
20260508020019 52 224 1.0 2.0 0.00 0.38 0.38 58 1008.0
20260508015507 52 221 1.0 2.0 0.00 0.38 0.38 58 1008.0
20260508015008 52 223 0.0 2.0 0.00 0.38 0.38 58 1008.0
20260508014523 52 221 0.0 2.0 0.00 0.38 0.38 58 1008.1
20260508014010 53 219 1.0 2.0 0.00 0.38 0.38 59 1008.0
20260508013503 53 226 0.0 3.0 0.00 0.38 0.38 59 1007.9
20260508013014 53 208 1.0 3.0 0.00 0.38 0.38 58 1007.7
20260508012506 52 214 1.0 2.0 0.00 0.38 0.38 59 1007.6
20260508012008 52 228 1.0 3.0 0.00 0.38 0.38 59 1007.6